This demonstration page uses our WeatherBlox Daily Observations layout. Learn more.

39.92423, -83.80882

Hourly Observations for June 27, 2019

Temp ( °F °C ) Dew Point ( °F °C ) Humidity (%) Winds ( mph kmh ) Pressure ( in mb ) Visibility ( mi km ) Precip ( " mm )
12:56 am 00:56 Clear 74 23.3 68 20 82 82 SW 6 9 30.15 1021 10 16.0934 0 0
1:56 am 01:56 Clear 73 22.8 68 20 84 84 SW 5 7 30.15 1021 10 16.0934 0 0
2:56 am 02:56 Clear 72 22.2 68 20 87 87 SSW 5 7 30.14 1021 10 16.0934 0 0
3:56 am 03:56 Clear 71 21.7 68 20 90 90 SW 6 9 30.14 1021 10 16.0934 0 0
4:56 am 04:56 Mostly Cloudy 70 21.1 68 20 93 93 Calm 30.16 1021 10 16.0934 0 0
5:56 am 05:56 Clear 69 20.6 68 20 96 96 SW 7 11 30.16 1022 10 16.0934 0 0
6:56 am 06:56 Sunny 69 20.6 67 19.4 93 93 Calm 30.18 1022 10 16.0934 0 0
7:56 am 07:56 Sunny 72 22.2 71 21.7 97 97 Calm 30.18 1022 10 16.0934 0 0
8:56 am 08:56 Sunny 76 24.4 70 21.1 82 82 SE 5 7 30.17 1022 10 16.0934 0 0
9:56 am 09:56 Sunny 81 27.2 71 21.7 72 72 SE 7 11 30.18 1022 10 16.0934 0 0
10:56 am 10:56 Sunny 83 28.3 71 21.7 67 67 Calm 30.19 1022 10 16.0934 0 0
11:56 am 11:56 Partly Cloudy with Thunderstorms 86 30 68 20 55 55 S 7 11 30.18 1022 10 16.0934 0 0
12:56 pm 12:56 Cloudy with Light Thunderstorms 74 23.3 68 20 82 82 WSW 13 20 30.19 1022 10 16.0934 0 0.0254
1:15 pm 13:15 Cloudy with Heavy Thunderstorms 73 23 66 19 78 78 NNE 30 48 30.18 1022 1.75 2.816345 0.15 3.81
1:19 pm 13:19 Cloudy with Heavy Thunderstorms 70 21 66 19 88 88 E 37 59 30.17 1022 0.75 1.207005 0.3 7.62
1:21 pm 13:21 Cloudy with Heavy Thunderstorms 70 21 66 19 88 88 E 40 65 30.19 1022 0.75 1.207005 0.38 9.652
1:25 pm 13:25 Cloudy with Heavy Rain 66 19 64 18 94 94 E 32 52 30.21 1023 0.5 0.80467 0.54 13.716
1:36 pm 13:36 Cloudy with Heavy Rain 66 19 64 18 94 94 W 28 44 30.2 1023 0.75 1.207005 1 25.4
1:40 pm 13:40 Cloudy with Heavy Thunderstorms 68 20 66 19 94 94 VRB 7 11 30.2 1023 1.25 2.011675 1.16 29.464
1:56 pm 13:56 Cloudy with Thunderstorms 69 20.6 68 20 96 96 SSE 6 9 30.22 1023 8 12.87472 1.7 43.18
2:15 pm 14:15 Cloudy with Rain 70 21 70 21 100 100 E 5 7 30.19 1022 7 11.26538 0.26 6.604
2:22 pm 14:22 Cloudy with Nearby Thunderstorms 70 21 70 21 100 100 ESE 5 7 30.19 1022 10 16.0934 0.26 6.604
2:52 pm 14:52 Cloudy with Light Rain 72 22 70 21 94 94 SE 9 15 30.16 1021 10 16.0934 0.27 6.858

Powered by AerisWeather